This demonstration page uses our WeatherBlox Daily Observations layout. Learn more.

Left ArrowRight Arrow

30.00354, -91.81873

Hourly Observations for November 30, 2022

Temp ( °F °C ) Dew Point ( °F °C ) Humidity (%) Winds ( mph kmh ) Pressure ( in mb ) Visibility ( mi km ) Precip ( " mm )
12:25 am 00:25 Cloudy with Light Rain 74 23.3 72 22.2 94 94 SSW 18 30 29.91 1013 9 14 0.01 0.25
12:53 am 00:53 Cloudy 74 23.3 72 22.2 94 94 SSW 16 26 29.91 1013 9 14 0.01 0.25
1:19 am 01:19 Cloudy with Thunderstorms 74 23.3 72 22.2 94 94 SW 13 20 29.92 1013 10 16 0.00 0.00
1:40 am 01:40 Cloudy with Nearby Thunderstorms 75 23.9 72 22.2 90 90 SSW 15 24 29.92 1013 9 14 0.01 0.13
1:53 am 01:53 Cloudy with Strong Thunderstorms 75 23.9 72 22.2 90 90 SW 14 22 29.93 1014 2 3 0.14 3.56
2:04 am 02:04 Cloudy with Thunderstorms 75 23.9 72 22.2 90 90 WSW 15 24 29.92 1013 3 5 0.06 1.52
2:16 am 02:16 Cloudy with Nearby Thunderstorms 75 23.9 72 22.2 90 90 W 12 19 29.92 1013 5 8 0.10 2.54
2:26 am 02:26 Mostly Cloudy with Thunderstorms 75 23.9 71 21.7 88 88 W 14 22 29.92 1013 10 16 0.10 2.54
2:53 am 02:53 Mostly Cloudy with Nearby Thunderstorms 75 23.9 71 21.7 88 88 W 14 22 29.94 1014 10 16 0.10 2.54
3:05 am 03:05 Mostly Cloudy with Nearby Thunderstorms 75 23.9 71 21.7 88 88 W 13 20 29.95 1014 10 16 0.01 0.13
3:13 am 03:13 Cloudy with Light Rain 75 23.9 71 21.7 88 88 W 12 19 29.95 1014 10 16 0.01 0.13
3:53 am 03:53 Partly Cloudy 74 23.3 70 21.1 87 87 W 8 13 29.95 1014 8 13 0.01 0.13
4:41 am 04:41 Mostly Cloudy 73 22.8 69 20.6 87 87 W 6 9 29.97 1015 7 11 0.00 0.00
4:53 am 04:53 Mostly Cloudy with Mist and Fog 72 22.2 69 20.6 91 91 WNW 6 9 29.97 1015 6 10 0.00 0.00
5:06 am 05:06 Mostly Cloudy with Mist and Fog 72 22.2 69 20.6 91 91 WNW 7 11 29.97 1015 6 10 0.00 0.00
5:31 am 05:31 Partly Cloudy with Mist and Fog 72 22.2 69 20.6 91 91 WNW 8 13 29.99 1016 5 8 0.00 0.00
5:42 am 05:42 Mostly Cloudy with Mist and Fog 72 22.2 69 20.6 91 91 WNW 7 11 29.99 1016 5 8 0.00 0.00
5:53 am 05:53 Partly Cloudy with Mist and Fog 72 22.2 69 20.6 91 91 WNW 8 13 29.99 1016 6 10 0.00 0.00
6:02 am 06:02 Mostly Cloudy with Mist and Fog 72 22.2 69 20.6 91 91 NW 7 11 30.00 1016 6 10 0.00 0.00
6:16 am 06:16 Partly Cloudy with Mist and Fog 71 21.7 68 20 90 90 NW 8 13 30.01 1016 5 8 0.00 0.00
6:29 am 06:29 Mostly Cloudy with Mist and Fog 71 21.7 68 20 90 90 NW 7 11 30.01 1016 5 8 0.00 0.00
6:53 am 06:53 Mostly Cloudy with Mist and Fog 71 21.7 68 20 90 90 NNW 7 11 30.03 1017 4 6 0.00 0.00
7:03 am 07:03 Partly Cloudy with Mist and Fog 71 21.7 68 20 90 90 NNW 8 13 30.04 1017 4 6 0.00 0.00
7:28 am 07:28 Mostly Cloudy with Haze 72 22.2 67 19.4 84 84 N 18 30 30.06 1018 5 8 0.00 0.00
7:53 am 07:53 Mostly Cloudy 66 18.9 57 13.9 73 73 N 28 44 30.09 1019 9 14 0.00 0.00
8:36 am 08:36 Cloudy 64 17.8 53 11.7 67 67 NNE 20 31 30.14 1021 10 16 0.00 0.00
8:53 am 08:53 Cloudy 64 17.8 53 11.7 67 67 N 17 28 30.15 1021 10 16 0.00 0.00
9:53 am 09:53 Sunny 65 18.3 46 7.8 50 50 NNE 23 37 30.19 1022 10 16 0.00 0.00
10:53 am 10:53 Sunny 65 18.3 45 7.2 48 48 NNE 22 35 30.22 1023 10 16 0.00 0.00
11:53 am 11:53 Sunny 65 18.3 40 4.4 40 40 NNE 21 33 30.22 1023 10 16 0.00 0.00
12:53 pm 12:53 Sunny 65 18.3 40 4.4 40 40 N 20 31 30.21 1023 10 16 0.00 0.00
1:53 pm 13:53 Sunny 66 18.9 41 5 40 40 NNE 18 30 30.21 1023 10 16 0.00 0.00
2:53 pm 14:53 Sunny 65 18.3 40 4.4 40 40 N 16 26 30.22 1023 10 16 0.00 0.00
3:53 pm 15:53 Sunny 63 17.2 40 4.4 43 43 N 16 26 30.22 1024 10 16 0.00 0.00
4:53 pm 16:53 Sunny 59 15 38 3.3 45 45 N 15 24 30.25 1024 10 16 0.00 0.00
5:53 pm 17:53 Clear 55 12.8 37 2.8 51 51 N 14 22 30.27 1025 10 16 0.00 0.00
6:53 pm 18:53 Clear 52 11.1 35 1.7 52 52 NNE 16 26 30.30 1026 10 16 0.00 0.00
7:53 pm 19:53 Clear 50 10 35 1.7 56 56 N 15 24 30.32 1027 10 16 0.00 0.00
8:53 pm 20:53 Clear 49 9.4 35 1.7 59 59 NNE 13 20 30.33 1027 10 16 0.00 0.00
9:53 pm 21:53 Clear 47 8.3 35 1.7 63 63 NNE 10 17 30.35 1028 10 16 0.00 0.00
10:53 pm 22:53 Clear 47 8.3 35 1.7 63 63 NE 14 22 30.35 1028 10 16 0.00 0.00
11:53 pm 23:53 Clear 46 7.8 35 1.7 65 65 NNE 13 20 30.34 1028 10 16 0.00 0.00

Powered by AerisWeather